Location: McCloud Nature Park
(39.8272°N, 86.6824°W)
Time: 21:20:32
(UTC-05:00)

Amateur Radio Satellites - All Passes

Search period start: 02 September 2014 20:50
Search period end: 03 September 2014 20:50
Location: McCloud Nature Park, 39.8272°N, 86.6824°W

Satellite Date Start Highest point End Downlink Frequencies (MHz)
Time Altitude Azimuth
HO-68 02 Sep 21:18:14 21:25:19 68° 256° (WSW) 21:32:27 435.675 MHz FM
UKube-1 02 Sep 21:28:28 21:32:49 87° 256° (WSW) 21:37:11 145.840 MHz, 145.915 MHz
Oscar 11 02 Sep 21:31:10 21:35:26 61° 74° (ENE) 21:39:45 145.825 FM, Beacon 2401.500 USB
MaSat-1 02 Sep 21:49:39 21:54:00 46° 60° (ENE) 21:57:45 437.345 MHz
Saudisat 1A 02 Sep 21:55:08 21:59:32 83° 120° (ESE) 22:03:58 436.775 MHz
FUNcube-1 02 Sep 22:06:07 22:10:12 55° 74° (ENE) 22:14:24 145.950 - 145.970 MHz USB
KITSAT 1 02 Sep 22:41:08 22:49:02 62° 114° (ESE) 22:56:59 435.175 FM
Oscar 11 02 Sep 23:10:42 23:12:00 11° 270° (W) 23:13:19 145.825 FM, Beacon 2401.500 USB
MaSat-1 02 Sep 23:28:13 23:30:20 14° 261° (W) 23:32:19 437.345 MHz
Saudisat 1A 02 Sep 23:37:23 23:39:42 14° 319° (NW) 23:42:01 436.775 MHz
FUNcube-1 02 Sep 23:45:32 23:46:59 12° 270° (W) 23:48:26 145.950 - 145.970 MHz USB
Sapphire 03 Sep 00:36:49 00:41:28 28° 50° (NE) 00:46:05 437.095 MHz 1200 baud AX-25 AFSK
KITSAT 1 03 Sep 00:37:44 00:44:53 34° 314° (NW) 00:52:05 435.175 FM
PCSat 03 Sep 01:05:34 01:10:51 49° 57° (ENE) 01:16:05 145.825 MHz
Oscar 19 03 Sep 01:09:58 01:12:48 15° 91° (E) 01:15:38 437.125 CW, 437.150 USB
Oscar 10/S400 03 Sep 01:29:51 02:31:57 50° 216° (SW) 09:15:39 145.825 - 145.975 CW/USB, Beacon 145.810 USB
Oscar 16 03 Sep 01:44:01 01:48:42 33° 97° (E) 01:53:20 437.025 USB, Beacon 2401.1428
ITAMSAT 1 03 Sep 01:50:04 01:53:01 15° 91° (E) 01:55:58 435.822 SSB
Uribyol 2 03 Sep 01:58:28 02:02:14 20° 93° (E) 02:05:59 436.500 FM
AO-27 03 Sep 02:18:49 02:23:20 30° 96° (E) 02:27:51 436.795 MHz FM
Sapphire 03 Sep 02:19:55 02:25:02 43° 248° (WSW) 02:30:07 437.095 MHz 1200 baud AX-25 AFSK
KITSAT 1 03 Sep 02:40:57 02:43:19 11° 342° (NNW) 02:45:42 435.175 FM
OPAL 03 Sep 02:45:43 02:46:46 11° 56° (NE) 02:47:48 ?
AO-Echo 03 Sep 02:47:04 02:51:44 62° 101° (ESE) 02:56:26 ?
Oscar 19 03 Sep 02:47:25 02:52:34 64° 287° (WNW) 02:57:40 437.125 CW, 437.150 USB
SO-50 03 Sep 02:48:38 02:53:02 67° 119° (ESE) 02:57:35 436.795 FM
PCSat 03 Sep 02:49:47 02:53:53 22° 254° (WSW) 02:57:59 145.825 MHz
JAS-1B 03 Sep 02:51:48 02:58:09 54° 99° (E) 03:03:46 435.800 - 435.900 CW/SSB
Gurwin Techsat 1B 03 Sep 03:06:27 03:11:24 38° 98° (E) 03:16:18 435.225 FM
Oscar 16 03 Sep 03:23:29 03:27:56 29° 293° (WNW) 03:32:21 437.025 USB, Beacon 2401.1428
ITAMSAT 1 03 Sep 03:27:47 03:32:55 62° 287° (WNW) 03:38:01 435.822 SSB
AO-7 03 Sep 03:36:20 03:41:02 16° 90° (E) 03:45:41 29.400 - 29.500 MHz
Uribyol 2 03 Sep 03:36:57 03:41:56 48° 289° (WNW) 03:46:54 436.500 FM
TMSAT-1 03 Sep 03:55:24 04:00:44 82° 103° (ESE) 04:06:02 436.925 FM
AO-27 03 Sep 03:58:14 04:02:48 32° 292° (WNW) 04:07:22 436.795 MHz FM
OPAL 03 Sep 04:19:41 04:24:45 81° 73° (ENE) 04:29:56 ?
AO-Echo 03 Sep 04:27:39 04:30:00 14° 297° (WNW) 04:32:22 ?
UOSAT-12 03 Sep 04:28:19 04:32:47 54° 117° (ESE) 04:37:23 437.025 FM, 437.400 FM
SO-50 03 Sep 04:31:08 04:34:05 17° 318° (NW) 04:37:04 436.795 FM
KITSAT 1 03 Sep 04:42:30 04:43:29 10° 14° (NNE) 04:44:28 435.175 FM
JAS-1B 03 Sep 04:43:25 04:48:13 22° 301° (WNW) 04:52:38 435.800 - 435.900 CW/SSB
Gurwin Techsat 1B 03 Sep 04:46:48 04:51:09 26° 294° (WNW) 04:55:29 435.225 FM
Uosat F 03 Sep 05:19:11 05:24:12 86° 285° (WNW) 05:29:13 435.120 FM
AO-7 03 Sep 05:26:30 05:34:51 86° 108° (ESE) 05:43:08 29.400 - 29.500 MHz
TMSAT-1 03 Sep 05:37:31 05:39:56 13° 300° (WNW) 05:42:20 436.925 FM
Hamsat 03 Sep 05:39:33 05:42:01 15° 91° (E) 05:44:29 145.90 MHz
RS-15 03 Sep 05:49:23 05:58:07 28° 104° (ESE) 06:06:41 29.354 - 29.394 USB, Beacon 29.352 USB
OPAL 03 Sep 06:02:51 06:04:14 11° 269° (W) 06:05:37 ?
UOSAT-12 03 Sep 06:09:48 06:13:17 20° 316° (NW) 06:16:48 437.025 FM, 437.400 FM
STRAND 1 03 Sep 06:09:56 06:14:39 40° 70° (ENE) 06:19:22 ?
JAS-2 03 Sep 06:19:11 06:24:14 41° 99° (E) 06:29:44 435.800 - 435.900 CW/SSB, 435.910 FM
Saudisat 1A 03 Sep 06:22:38 06:26:58 52° 54° (NE) 06:31:15 436.775 MHz
KITSAT 1 03 Sep 06:35:27 06:42:15 29° 43° (NE) 06:49:01 435.175 FM
Uosat F 03 Sep 07:01:24 07:02:11 10° 301° (WNW) 07:02:58 435.120 FM
SO-67 03 Sep 07:08:38 07:11:03 18° 94° (E) 07:13:28 435.3500 MHz FM
Hamsat 03 Sep 07:14:04 07:18:13 45° 287° (WNW) 07:22:18 145.90 MHz
AO-7 03 Sep 07:20:47 07:26:38 22° 307° (NW) 07:32:28 29.400 - 29.500 MHz
STRAND 1 03 Sep 07:49:57 07:53:57 23° 266° (W) 07:57:58 ?
RS-15 03 Sep 07:58:15 08:09:21 76° 304° (NW) 08:20:19 29.354 - 29.394 USB, Beacon 29.352 USB
ISS 03 Sep 07:59:27 08:00:59 13° 129° (SE) 08:02:31 145.800 FM
Saudisat 1A 03 Sep 08:03:28 08:06:07 16° 251° (WSW) 08:08:45 436.775 MHz
JAS-2 03 Sep 08:04:56 08:09:11 25° 293° (WNW) 08:13:42 435.800 - 435.900 CW/SSB, 435.910 FM
KITSAT 1 03 Sep 08:30:21 08:38:24 75° 244° (WSW) 08:46:25 435.175 FM
SO-67 03 Sep 08:41:16 08:44:04 23° 289° (WNW) 08:46:50 435.3500 MHz FM
HO-68 03 Sep 08:47:35 08:53:13 24° 94° (E) 08:58:49 435.675 MHz FM
UKube-1 03 Sep 09:18:41 09:21:29 17° 93° (E) 09:24:16 145.840 MHz, 145.915 MHz
Oscar 11 03 Sep 09:21:46 09:23:22 12° 90° (E) 09:24:58 145.825 FM, Beacon 2401.500 USB
ISS 03 Sep 09:34:01 09:37:19 67° 324° (NW) 09:40:38 145.800 FM
FUNcube-1 03 Sep 09:57:40 09:59:40 13° 91° (E) 10:01:39 145.950 - 145.970 MHz USB
PANSAT 03 Sep 10:05:27 10:06:27 11° 167° (SSE) 10:07:28 not established
RS-15 03 Sep 10:15:08 10:23:52 26° 331° (NNW) 10:32:39 29.354 - 29.394 USB, Beacon 29.352 USB
KITSAT 1 03 Sep 10:29:16 10:32:24 13° 261° (W) 10:35:32 435.175 FM
HO-68 03 Sep 10:34:17 10:41:19 61° 291° (WNW) 10:48:20 435.675 MHz FM
UKube-1 03 Sep 10:53:46 10:57:51 41° 289° (WNW) 11:01:55 145.840 MHz, 145.915 MHz
Oscar 11 03 Sep 10:55:37 10:59:55 58° 286° (WNW) 11:04:11 145.825 FM, Beacon 2401.500 USB
ISS 03 Sep 11:12:25 11:14:33 16° 343° (NNW) 11:16:41 145.800 FM
SO-50 03 Sep 11:20:50 11:25:31 50° 54° (NE) 11:30:13 436.795 FM
FUNcube-1 03 Sep 11:31:53 11:36:24 61° 286° (WNW) 11:40:56 145.950 - 145.970 MHz USB
MaSat-1 03 Sep 11:36:22 11:40:26 27° 104° (ESE) 11:44:40 437.345 MHz
PANSAT 03 Sep 11:43:36 11:45:55 15° 179° (S) 11:48:13 not established
JAS-1B 03 Sep 11:50:04 11:52:39 12° 51° (NE) 11:55:08 435.800 - 435.900 CW/SSB
HO-68 03 Sep 12:25:31 12:27:35 11° 310° (NW) 12:29:39 435.675 MHz FM
Oscar 19 03 Sep 12:25:54 12:29:42 21° 64° (ENE) 12:33:31 437.125 CW, 437.150 USB
RS-15 03 Sep 12:34:39 12:41:42 18° 8° (N) 12:48:50 29.354 - 29.394 USB, Beacon 29.352 USB
ISS 03 Sep 12:51:22 12:52:23 11° 3° (N) 12:53:25 145.800 FM
UOSAT-12 03 Sep 12:58:43 13:03:10 39° 51° (NE) 13:07:32 437.025 FM, 437.400 FM
Oscar 16 03 Sep 13:00:10 13:05:03 45° 71° (ENE) 13:09:58 437.025 USB, Beacon 2401.1428
SO-50 03 Sep 13:02:18 13:05:44 20° 250° (WSW) 13:09:10 436.795 FM
ITAMSAT 1 03 Sep 13:07:10 13:11:07 23° 65° (ENE) 13:15:04 435.822 SSB
MaSat-1 03 Sep 13:12:35 13:17:13 38° 302° (WNW) 13:22:03 437.345 MHz
Uribyol 2 03 Sep 13:15:35 13:19:56 29° 67° (ENE) 13:24:18 436.500 FM
PANSAT 03 Sep 13:24:05 13:25:22 11° 192° (SSW) 13:26:40 not established
JAS-1B 03 Sep 13:32:18 13:41:33 53° 69° (ENE) 13:49:44 435.800 - 435.900 CW/SSB
AO-27 03 Sep 13:36:12 13:41:03 42° 70° (ENE) 13:45:54 436.795 MHz FM
TMSAT-1 03 Sep 13:38:33 13:41:28 15° 61° (ENE) 13:44:24 436.925 FM
AO-Echo 03 Sep 13:59:08 14:04:07 76° 75° (ENE) 14:08:58 ?
Oscar 19 03 Sep 14:03:43 14:08:41 47° 261° (W) 14:13:42 437.125 CW, 437.150 USB
Gurwin Techsat 1B 03 Sep 14:26:44 14:31:54 56° 72° (ENE) 14:37:06 435.225 FM
ISS 03 Sep 14:27:26 14:30:06 22° 24° (NNE) 14:32:46 145.800 FM
AO-7 03 Sep 14:34:27 14:40:44 25° 55° (NE) 14:46:59 29.400 - 29.500 MHz
UOSAT-12 03 Sep 14:39:19 14:43:06 24° 248° (WSW) 14:46:48 437.025 FM, 437.400 FM
Oscar 16 03 Sep 14:40:45 14:44:35 21° 267° (W) 14:48:28 437.025 USB, Beacon 2401.1428
ITAMSAT 1 03 Sep 14:45:25 14:50:18 43° 261° (W) 14:55:14 435.822 SSB
RS-15 03 Sep 14:48:22 14:58:30 39° 41° (NE) 15:08:54 29.354 - 29.394 USB, Beacon 29.352 USB
Uribyol 2 03 Sep 14:54:39 14:59:17 33° 263° (W) 15:03:57 436.500 FM
Uosat F 03 Sep 14:55:48 14:58:30 15° 61° (ENE) 15:01:11 435.120 FM
TMSAT-1 03 Sep 15:15:30 15:20:46 71° 258° (WSW) 15:26:04 436.925 FM
AO-27 03 Sep 15:16:44 15:20:42 22° 266° (W) 15:24:43 436.795 MHz FM
Sapphire 03 Sep 15:18:22 15:22:50 27° 108° (ESE) 15:27:19 437.095 MHz 1200 baud AX-25 AFSK
JAS-1B 03 Sep 15:23:12 15:32:03 39° 263° (W) 15:40:06 435.800 - 435.900 CW/SSB
AO-Echo 03 Sep 15:42:05 15:43:21 11° 270° (W) 15:44:37 ?
PCSat 03 Sep 15:46:26 15:51:40 53° 113° (ESE) 15:56:55 145.825 MHz
ISS 03 Sep 16:03:46 16:07:03 59° 221° (SW) 16:10:19 145.800 FM
Gurwin Techsat 1B 03 Sep 16:08:47 16:12:13 17° 268° (W) 16:15:39 435.225 FM
AO-7 03 Sep 16:24:19 16:32:39 78° 254° (WSW) 16:41:01 29.400 - 29.500 MHz
OPAL 03 Sep 16:31:08 16:35:13 23° 96° (E) 16:39:15 ?
Uosat F 03 Sep 16:31:44 16:36:42 68° 258° (WSW) 16:41:42 435.120 FM
JAS-2 03 Sep 16:33:15 16:36:40 16° 63° (ENE) 16:39:55 435.800 - 435.900 CW/SSB, 435.910 FM
Hamsat 03 Sep 16:34:01 16:35:04 11° 62° (ENE) 16:36:07 145.90 MHz
RS-15 03 Sep 17:00:39 17:11:38 69° 245° (WSW) 17:23:05 29.354 - 29.394 USB, Beacon 29.352 USB
Sapphire 03 Sep 17:00:56 17:06:02 41° 305° (NW) 17:11:09 437.095 MHz 1200 baud AX-25 AFSK
PCSat 03 Sep 17:31:03 17:35:23 24° 311° (NW) 17:39:44 145.825 MHz
Hamsat 03 Sep 18:06:05 18:10:24 72° 259° (WSW) 18:14:46 145.90 MHz
OPAL 03 Sep 18:09:19 18:14:14 43° 292° (WNW) 18:19:07 ?
JAS-2 03 Sep 18:15:20 18:21:20 68° 258° (WSW) 18:26:45 435.800 - 435.900 CW/SSB, 435.910 FM
STRAND 1 03 Sep 18:22:47 18:25:23 14° 91° (E) 18:27:58 ?
AO-7 03 Sep 18:22:48 18:26:37 14° 271° (W) 18:30:28 29.400 - 29.500 MHz
SO-67 03 Sep 19:12:39 19:16:07 84° 258° (WSW) 19:19:36 435.3500 MHz FM
HO-68 03 Sep 19:17:04 19:21:38 19° 56° (NE) 19:26:11 435.675 MHz FM
RS-15 03 Sep 19:17:20 19:21:54 13° 264° (W) 19:26:32 29.354 - 29.394 USB, Beacon 29.352 USB
STRAND 1 03 Sep 19:59:56 20:05:00 66° 287° (WNW) 20:10:03 ?
UKube-1 03 Sep 20:14:22 20:16:42 14° 64° (ENE) 20:19:03 145.840 MHz, 145.915 MHz
Saudisat 1A 03 Sep 20:30:07 20:32:45 16° 109° (ESE) 20:35:24 436.775 MHz
